DW1289 Weather Reports


Display with metric or nautical units.
time (UTC)temp
F
wind
direction
speed
MPH
gust
MPH
rain 1hr
in
rain 24hr
in
rain mn
in
humidity
%
barometer
mb
20260507142016 59 0 1.0 5.0 0.00 0.00 0.00 48 1017.2
20260507141016 59 338 2.0 8.0 0.00 0.00 0.00 47 1017.0
20260507140016 58 68 1.0 5.0 0.00 0.00 0.00 50 1017.1
20260507135036 57 338 2.0 7.0 0.00 0.00 0.00 52 1017.2
20260507134016 56 315 1.0 6.0 0.00 0.00 0.00 53 1017.1
20260507133036 55 0.0 0.0 0.00 0.00 0.00 59 1017.0
20260507132016 54 0.0 0.0 0.00 0.00 0.00 61 1017.1
20260507131016 53 0.0 0.0 0.00 0.00 0.00 65 1017.0
20260507130036 52 0.0 0.0 0.00 0.00 0.00 72 1017.1
20260507125016 51 0.0 1.0 0.00 0.00 0.00 77 1017.1
20260507124016 49 0.0 1.0 0.00 0.00 0.00 83 1017.0
20260507123016 48 0.0 0.0 0.00 0.00 0.00 87 1016.9
20260507122016 46 0.0 0.0 0.00 0.00 0.00 89 1016.9
20260507121056 45 0.0 0.0 0.00 0.00 0.00 89 1016.9
20260507120016 44 0.0 0.0 0.00 0.00 0.00 89 1017.0
20260507115036 42 0.0 0.0 0.00 0.00 0.00 88 1016.9
20260507114016 41 0.0 0.0 0.00 0.00 0.00 86 1017.0
20260507113016 41 0.0 0.0 0.00 0.00 0.00 84 1017.0
20260507112016 41 0.0 0.0 0.00 0.00 0.00 84 1016.8
20260507111016 41 0.0 0.0 0.00 0.00 0.00 84 1016.8
20260507110036 41 0.0 0.0 0.00 0.00 0.00 83 1016.7
20260507105016 41 0.0 0.0 0.00 0.00 0.00 83 1016.6
20260507104016 42 0.0 0.0 0.00 0.00 0.00 83 1016.5
20260507103016 42 0.0 0.0 0.00 0.00 0.00 83 1016.4
20260507102016 42 0.0 0.0 0.00 0.00 0.00 83 1016.4
20260507101036 43 0.0 0.0 0.00 0.00 0.00 84 1016.2
20260507100036 43 0.0 0.0 0.00 0.00 0.00 84 1016.3
20260507095036 43 0.0 0.0 0.00 0.00 0.00 84 1016.3
20260507094016 43 0.0 0.0 0.00 0.00 0.00 83 1016.2
20260507093016 43 0.0 0.0 0.00 0.00 0.00 83 1016.2
20260507092016 44 0.0 0.0 0.00 0.00 0.00 83 1016.1
20260507091036 44 0.0 0.0 0.00 0.00 0.00 83 1016.1
20260507090016 44 0.0 0.0 0.00 0.00 0.00 83 1016.0
20260507085016 45 0.0 0.0 0.00 0.00 0.00 83 1015.8
20260507084016 45 0.0 0.0 0.00 0.00 0.00 83 1015.7
20260507083016 45 0.0 0.0 0.00 0.00 0.00 83 1015.8
20260507082016 45 0.0 0.0 0.00 0.00 0.00 83 1015.5
20260507081016 45 0.0 0.0 0.00 0.00 0.00 82 1015.5
20260507080036 45 0.0 0.0 0.00 0.00 0.00 82 1015.6
20260507075016 45 0.0 0.0 0.00 0.00 0.00 81 1015.5
20260507074016 45 0.0 0.0 0.00 0.00 0.00 81 1015.4
20260507073016 45 0.0 0.0 0.00 0.00 0.00 81 1015.5
20260507072016 46 0.0 0.0 0.00 0.01 0.00 81 1015.7
20260507071016 46 0.0 0.0 0.00 0.01 0.00 81 1015.4
20260507070016 46 0.0 0.0 0.00 0.02 0.00 80 1015.4
20260507065016 47 0.0 0.0 0.00 0.06 0.00 81 1015.5
20260507064016 47 0.0 0.0 0.00 0.08 0.00 80 1015.7
20260507063016 47 0.0 0.0 0.00 0.10 0.00 80 1015.6
20260507062016 47 0.0 0.0 0.00 0.13 0.00 79 1015.7
20260507061016 48 0.0 0.0 0.00 0.15 0.00 80 1015.8
20260507060016 48 0.0 0.0 0.00 0.15 0.00 80 1015.8
20260507055016 48 0.0 0.0 0.00 0.17 0.00 80 1015.7
20260507054016 48 0.0 0.0 0.00 0.18 0.00 79 1015.9
20260507053016 48 0.0 0.0 0.00 0.19 0.00 79 1015.8
20260507052016 48 0.0 0.0 0.00 0.21 0.00 79 1015.8
20260507051016 48 0.0 0.0 0.00 0.26 0.00 79 1015.8
20260507050036 49 0.0 0.0 0.00 0.31 0.00 79 1015.5
20260507045016 49 0.0 0.0 0.00 0.34 0.00 79 1015.6
20260507044016 49 0.0 0.0 0.00 0.37 0.00 79 1015.6
20260507043036 49 0.0 0.0 0.00 0.39 0.00 80 1015.5
20260507042016 49 0.0 0.0 0.00 0.52 0.00 79 1015.7
20260507041036 50 0.0 0.0 0.00 0.54 0.00 79 1015.9
20260507040016 50 0.0 0.0 0.00 0.54 0.00 78 1015.7
20260507035016 50 0.0 0.0 0.00 0.54 0.54 78 1015.6
20260507034036 51 0.0 0.0 0.00 0.56 0.54 77 1015.8
20260507033016 51 0.0 0.0 0.00 0.56 0.54 75 1015.9
20260507032017 51 0.0 0.0 0.00 0.56 0.54 74 1015.9
20260507031016 52 0.0 0.0 0.00 0.56 0.54 72 1015.6
20260507030016 52 0.0 0.0 0.00 0.56 0.54 71 1015.5
20260507025036 53 0.0 0.0 0.00 0.57 0.54 70 1015.4
20260507024016 53 0.0 0.0 0.00 0.58 0.54 69 1015.4
20260507023016 54 0.0 0.0 0.00 0.59 0.54 68 1015.2
20260507022016 54 0.0 0.0 0.00 0.60 0.54 67 1015.2
20260507021016 55 0.0 0.0 0.00 0.60 0.54 66 1015.2
20260507020016 55 0.0 0.0 0.00 0.60 0.54 64 1014.8
20260507015016 56 0.0 0.0 0.00 0.60 0.54 63 1014.7
20260507014016 56 0.0 0.0 0.00 0.60 0.54 62 1014.5
20260507013016 57 0.0 0.0 0.00 0.60 0.54 60 1014.5
20260507012016 57 0.0 0.0 0.00 0.60 0.54 59 1014.5
20260507011036 58 0.0 1.0 0.00 0.60 0.54 59 1014.5
20260507010016 58 0.0 1.0 0.00 0.60 0.54 58 1014.4
20260507005016 58 0.0 1.0 0.00 0.60 0.54 58 1014.3
20260507004016 58 0 1.0 3.0 0.00 0.60 0.54 57 1014.4
20260507003016 59 0.0 3.0 0.00 0.60 0.54 57 1014.5
20260507002016 59 315 1.0 5.0 0.00 0.60 0.54 57 1014.4
20260507001016 59 293 2.0 6.0 0.00 0.61 0.54 58 1014.4
20260507000016 60 270 1.0 5.0 0.00 0.61 0.54 59 1014.3
20260506235016 60 0.0 3.0 0.00 0.62 0.54 58 1014.1
20260506234016 60 315 1.0 3.0 0.00 0.63 0.54 56 1013.9
20260506233016 60 0 1.0 3.0 0.00 0.68 0.54 54 1013.8
20260506232016 61 338 1.0 5.0 0.00 0.70 0.54 53 1014.1
20260506231016 61 270 1.0 4.0 0.00 0.72 0.54 52 1014.1
20260506230036 61 293 1.0 3.0 0.00 0.73 0.54 52 1014.2
20260506225016 61 0 2.0 6.0 0.00 0.74 0.54 52 1014.0
20260506224016 61 315 2.0 7.0 0.00 0.74 0.54 50 1014.2
20260506223017 61 248 2.0 5.0 0.00 0.76 0.54 51 1013.6
20260506222036 62 248 2.0 7.0 0.00 0.78 0.54 52 1013.3
20260506221016 62 338 2.0 8.0 0.00 0.79 0.54 49 1013.5
20260506220056 62 248 2.0 6.0 0.00 0.84 0.54 49 1013.6
20260506215016 62 338 2.0 5.0 0.00 0.85 0.54 51 1013.6
20260506214016 62 338 2.0 6.0 0.00 0.85 0.54 49 1013.0
20260506213016 62 248 2.0 6.0 0.00 0.85 0.54 52 1013.5
20260506212016 62 248 2.0 6.0 0.00 0.85 0.54 50 1013.5
20260506211016 62 270 2.0 7.0 0.00 0.85 0.54 50 1014.0
20260506210016 63 293 2.0 6.0 0.00 0.85 0.54 48 1013.9
20260506205016 63 248 2.0 4.0 0.00 0.85 0.54 50 1013.8
20260506204016 63 270 2.0 5.0 0.00 0.85 0.54 50 1014.0
20260506203016 63 23 2.0 6.0 0.00 0.85 0.54 46 1014.1
20260506202016 64 45 2.0 9.0 0.00 0.85 0.54 48 1013.8
20260506201016 64 45 2.0 8.0 0.00 0.85 0.54 48 1013.7
20260506200016 64 338 2.0 8.0 0.00 0.85 0.54 50 1013.7
20260506195016 64 248 2.0 8.0 0.00 0.85 0.54 48 1013.8
20260506194036 64 0 2.0 6.0 0.00 0.85 0.54 49 1014.1
20260506193036 64 68 2.0 9.0 0.00 0.85 0.54 51 1014.2
20260506192016 65 45 3.0 9.0 0.00 0.85 0.54 50 1014.0
20260506191016 66 248 3.0 7.0 0.00 0.86 0.54 52 1013.9
20260506190016 64 68 3.0 9.0 0.00 0.87 0.54 54 1013.8
20260506185016 65 45 2.0 7.0 0.00 0.90 0.54 55 1013.6
20260506184036 64 68 2.0 6.0 0.00 0.91 0.54 56 1013.7
20260506183016 63 315 2.0 8.0 0.00 0.93 0.54 52 1014.0
20260506182016 63 0 2.0 9.0 0.00 0.93 0.54 49 1013.6
20260506181016 62 45 2.0 5.0 0.00 0.94 0.54 53 1013.7
20260506180036 63 45 3.0 8.0 0.00 0.94 0.54 52 1013.8
20260506175016 63 45 3.0 10.0 0.00 0.94 0.54 51 1014.0
20260506174016 63 45 4.0 9.0 0.00 0.94 0.54 52 1013.6
20260506173016 62 45 4.0 11.0 0.00 0.94 0.54 53 1013.7
20260506172016 62 68 4.0 9.0 0.00 0.94 0.54 55 1014.0
20260506171016 62 45 3.0 10.0 0.00 0.94 0.54 53 1014.2
20260506170016 62 45 3.0 9.0 0.00 0.94 0.54 56 1014.3
20260506165016 61 68 3.0 11.0 0.00 0.94 0.54 56 1014.2
20260506164036 61 45 5.0 11.0 0.00 0.94 0.54 56 1014.6
20260506163016 60 45 5.0 12.0 0.00 0.94 0.54 53 1014.4
20260506162016 60 45 4.0 10.0 0.00 0.94 0.54 54 1014.6
20260506161056 60 45 4.0 10.0 0.00 0.94 0.54 56 1014.6
20260506160016 60 45 3.0 11.0 0.00 0.94 0.54 55 1014.6
20260506155036 60 23 3.0 10.0 0.00 0.94 0.54 56 1014.6
20260506154016 59 45 4.0 11.0 0.00 0.94 0.54 61 1014.3
20260506153016 58 68 4.0 9.0 0.00 0.94 0.54 59 1014.2
20260506152016 58 45 4.0 9.0 0.00 0.94 0.54 58 1013.8
20260506151016 56 338 4.0 10.0 0.00 0.94 0.54 64 1013.6
20260506150016 55 68 2.0 7.0 0.00 0.94 0.54 66 1013.8
20260506145016 55 68 4.0 11.0 0.00 0.94 0.54 66 1014.0
20260506144016 54 45 4.0 10.0 0.00 0.94 0.54 68 1013.6
20260506143016 54 23 2.0 9.0 0.00 0.94 0.54 73 1013.7